ATLAS 2A CENTAUR R/B

Satellite information

Favourite Embed

Satellite Type and Status

ROCKET BODYIN ORBIT

Key statistics

Satellite ATLAS 2A CENTAUR R/B at a glance.

Uptime

10854

Days in orbit

Revolutions

≈ 2.2

Per day

Orbit

GTO

Geostationary Transfer Orbit

Inclination

21.3

Latest

Satellite identification and parameters

Extended collection of information and parameters for ATLAS 2A CENTAUR R/B.

Object identification

Identified? True

Debris? False

Object name: ATLAS 2A CENTAUR R/B

International designator: 1996-020B

Object number (NORAD): 23840

Object ID (CCSDS): 23840

Country: UNITED STATES OF AMERICA (US)

Current information (Y/N): Y

RCS size: LARGE

Orbital parameters

Period: 642.245 minutes

Inclination: 21.2862 deg

SMA: 24658.148 km

Apoapsis: 35462.183 km

Periapsis: 1097.843 km

RAAN: 144.4439 deg

Eccentricy: 0.6968151

Argument of periapsis: 183.8001 deg

Mean anomaly: 164.8879 deg

Mean motion: 2.24213667 rev/day

Mean motion (dot): -0.00000097 rev/day2

B* drag term: -0.0029556436 1/REarth

Two-line elements (TLE)

Creation date: Dec. 20, 2025, 5:42 p.m.

Reference frame: TEME

Reference center: EARTH

Epoch: Dec. 20, 2025, 5:37 a.m. UTC

TLE line 0: 0 ATLAS 2A CENTAUR R/B

TLE line 1: 1 23840U 96020B 25354.23428287 -.00000097 00000-0 -29556-2 0 9996

TLE line 2: 2 23840 21.2862 144.4439 6968151 183.8001 164.8879 2.24213667243483

Live tracking on map

Real-time ground track for satellite ATLAS 2A CENTAUR R/B.

In-orbit conjunctions

A list of the most updated potential collisions computed for object ATLAS 2A CENTAUR R/B.

Target Orbit TCA Probability of collision Miss distance Type
ATLAS 5 CENTAUR R/B MEO 2024-06-25 06:10:01 TBA 2809.0 (m) ROCKET BODY

Associated space launch

Launched in 1996-8, the Inmarsat-3s were built by Lockheed Martin Astro Space (now Lockheed Martin Missiles & Space) of the USA, responsible for the basic spacecraft, and the European Matra Marconi Space (now Astrium), which developed the communications payload.

ATLAS 2A CENTAUR R/B was lifted into orbit during the mission ‘Atlas IIA | INMARSAT III F-1’, on board a Atlas IIA space rocket.

The launch took place on April 3, 1996, 11:01 p.m. from Launch Complex 36A.

For more information about the launch, click the button.

Launch to space Atlas IIA | INMARSAT III F-1
Atlas IIA | INMARSAT III F-1

Agency: N/A

Status: Launch Successful

Launch date: April 3, 1996, 11:01 p.m. UTC

Rocket: Atlas IIA

Launch pad: Launch Complex 36A

Location: Cape Canaveral SFS, FL, USA

...

Latest news about this satellite

There are no fresh news available about this satellite. Check back as we update our databases every day.


Newsletter sign-up

Weekly statistics, charts and insights to help you stay on top of the space industry.